Weather History for Everett, WA

Change the Weather History Date:

Thursday, August 21, 2014

  Actual Average Record
Temperature  
Mean Temperature 60 °F -  
Max Temperature 66 °F 73 °F 83 °F (1991)
Min Temperature 54 °F 53 °F 41 °F (1973)
Degree Days  
Heating Degree Days 5    
Growing Degree Days 10 (Base 50)    
Moisture  
Dew Point 51 °F    
Average Humidity 75    
Maximum Humidity 90    
Minimum Humidity 49    
Precipitation  
Precipitation 0.00 in - - ()
Sea Level Pressure  
Sea Level Pressure 30.02 in    
Wind  
Wind Speed 6 mph (SW)    
Max Wind Speed 12 mph    
Max Gust Speed -    
Visibility 10 miles    
Events      
Averages and records for this station are not official NWS values.
T = Trace of Precipitation, MM = Missing Value Source: NWS Daily Summary

Daily Weather History Graph

Daily Weather History Graph

Search for Another Location

Airport:

Trip Planner

Search our weather history database for the weather conditions in past years. The results will help you decide how hot, cold, wet, or windy it might be!

Date:

Astronomy

Aug. 21, 2014 Rise Set
Actual Time 6:12 AM PDT 8:10 PM PDT
Civil Twilight 5:39 AM PDT 8:44 PM PDT
Nautical Twilight 4:57 AM PDT 9:25 PM PDT
Astronomical Twilight 4:12 AM PDT 10:10 PM PDT
Moon 2:40 AM PDT (8/21) 5:49 PM PDT (8/21)
Length of Visible Light 15h 05m
Length of Day
13h 58m
Waning Crescent, 13% of the Moon is Illuminated
Aug 21
Waning Crescent
Aug 25
New
Sep 2
First Quarter
Sep 8
Full
Sep 15
Last Quarter

Hourly Weather History & Observations

Time (PDT) Temp. Dew Point Humidity Pressure Visibility Wind Dir Wind Speed Gust Speed Precip Events Conditions
12:53 AM 59.0 °F 52.0 °F 78% 30.01 in 10.0 mi SW 5.8 mph - N/A   Mostly Cloudy
1:53 AM 57.9 °F 51.1 °F 78% 30.02 in 10.0 mi Variable 4.6 mph - N/A   Scattered Clouds
2:53 AM 57.0 °F 51.1 °F 81% 30.03 in 10.0 mi SW 3.5 mph - N/A   Scattered Clouds
3:53 AM 55.9 °F 51.1 °F 84% 30.03 in 10.0 mi SSW 5.8 mph - N/A   Overcast
4:53 AM 54.0 °F 51.1 °F 90% 30.03 in 10.0 mi SSW 3.5 mph - N/A   Partly Cloudy
5:02 AM 54.0 °F 51.1 °F 90% 30.03 in 10.0 mi SW 3.5 mph - N/A   Scattered Clouds
5:14 AM 54.0 °F 51.1 °F 90% 30.03 in 10.0 mi SW 3.5 mph - N/A   Mostly Cloudy
5:53 AM 54.0 °F 50.0 °F 86% 30.03 in 10.0 mi SSW 5.8 mph - N/A   Overcast
6:45 AM 54.0 °F 50.0 °F 86% 30.04 in 10.0 mi South 8.1 mph - N/A   Overcast
6:53 AM 55.0 °F 50.0 °F 83% 30.04 in 10.0 mi SSW 10.4 mph - N/A   Overcast
7:23 AM 55.0 °F 50.0 °F 83% 30.04 in 10.0 mi SSW 8.1 mph - N/A   Overcast
7:45 AM 55.9 °F 51.1 °F 84% 30.05 in 10.0 mi SSW 6.9 mph - N/A   Overcast
7:53 AM 55.9 °F 51.1 °F 84% 30.05 in 10.0 mi South 5.8 mph - N/A   Overcast
8:53 AM 57.0 °F 51.1 °F 81% 30.04 in 10.0 mi South 8.1 mph - N/A   Overcast
9:53 AM 57.0 °F 51.1 °F 81% 30.05 in 10.0 mi WSW 8.1 mph - N/A   Overcast
10:53 AM 59.0 °F 51.1 °F 75% 30.05 in 10.0 mi WSW 9.2 mph - N/A   Overcast
11:53 AM 60.1 °F 51.1 °F 72% 30.04 in 10.0 mi SW 8.1 mph - N/A   Mostly Cloudy
12:53 PM 62.1 °F 51.1 °F 67% 30.04 in 10.0 mi WSW 9.2 mph - N/A   Partly Cloudy
1:53 PM 64.0 °F 51.1 °F 63% 30.03 in 10.0 mi WSW 10.4 mph - N/A   Partly Cloudy
2:53 PM 64.9 °F 50.0 °F 58% 30.01 in 10.0 mi SW 11.5 mph - N/A   Clear
3:53 PM 66.9 °F 48.0 °F 51% 30.00 in 10.0 mi WSW 11.5 mph - N/A   Clear
4:53 PM 66.9 °F 46.9 °F 49% 29.99 in 10.0 mi WSW 9.2 mph - N/A   Clear
5:53 PM 66.9 °F 48.0 °F 51% 29.99 in 10.0 mi WSW 9.2 mph - N/A   Clear
6:53 PM 66.9 °F 48.9 °F 52% 29.99 in 10.0 mi NW 5.8 mph - N/A   Clear
7:53 PM 63.0 °F 52.0 °F 67% 29.99 in 10.0 mi North 6.9 mph - N/A   Mostly Cloudy
8:53 PM 61.0 °F 52.0 °F 72% 30.00 in 10.0 mi Variable 3.5 mph - N/A   Scattered Clouds
9:53 PM 57.9 °F 51.1 °F 78% 30.00 in 10.0 mi North 6.9 mph - N/A   Clear
10:53 PM 57.0 °F 53.1 °F 87% 30.01 in 10.0 mi North 4.6 mph - N/A   Clear
11:53 PM 55.9 °F 52.0 °F 87% 30.01 in 10.0 mi North 3.5 mph - N/A   Clear